Location: Atherton
(17.2661°S, 145.4859°E)
Time: 23:01:22
(UTC+10:00)

Transit 2A - Pass Details

Date: 26 June 2025
Orbit: 598 x 948 km, 66.7° (Epoch: 19 July)

Event Time Altitude Azimuth Distance (km) Brightness Sun altitude
Rises 10:46:16 0° 290° (WNW) 3,469 9.3 43.3°
Reaches altitude 10° 10:50:44 10° 258° (WSW) 2,605 8.6 43.8°
Maximum altitude 10:52:44 12° 239° (WSW) 2,514 8.4 44.0°
Drops below altitude 10° 10:54:47 10° 219° (SW) 2,654 8.5 44.3°
Sets 10:59:30 0° 188° (S) 3,630 9.1 44.8°
